Wind_Speed
26 26 27 27 27 27 27 28 29 30 32 34 34 35 36 37 37 38 39 40 41 41 41 41 42 43 43 43 43 43 43 42 42 41 40 39 39 37
28 28 29 29 29 29 29 29 30 30 32 34 36 36 37 38 39 40 40 41 42 42 43 43 43 44 44 45 45 44 44 44 43 43 42 41 41 39
29 30 31 31 31 31 31 31 31 31 32 34 36 38 38 39 39 41 42 42 43 44 44 45 45 45 46 46 46 46 46 45 45 44 44 43 43 42
31 32 32 32 33 33 33 33 32 32 32 32 35 37 39 40 40 40 42 43 44 45 45 45 46 46 47 48 48 48 48 47 47 46 45 45 44 44
33 33 34 34 34 34 33 33 33 33 32 32 34 36 38 40 40 41 41 43 44 46 46 46 46 47 48 48 49 49 49 49 48 48 47 46 46 45
34 35 35 35 35 34 34 34 34 34 34 34 34 35 36 38 40 41 41 43 44 45 46 47 47 47 48 49 49 50 51 50 50 50 49 48 47 47
36 36 36 37 36 35 35 34 35 35 35 35 34 34 35 37 39 40 40 42 43 44 46 47 48 48 48 49 50 50 51 51 51 51 50 49 49 48
37 38 38 38 37 36 36 36 36 36 36 35 35 35 35 37 38 39 39 40 41 44 45 46 48 48 48 49 50 50 50 50 51 51 51 50 49 48
39 38 38 38 38 37 37 37 37 37 36 36 35 35 36 37 37 38 38 39 39 41 43 44 47 48 49 49 50 50 51 50 51 52 51 51 50 50
40 40 39 39 39 38 38 37 37 37 37 36 36 36 36 37 37 37 38 39 39 40 42 43 45 47 48 50 50 50 51 51 51 52 52 51 51 51
42 41 40 39 40 39 38 38 38 38 37 37 36 36 36 37 37 37 38 38 39 40 42 42 44 46 47 48 49 51 51 52 52 51 52 52 52 51
43 43 42 41 41 40 40 39 38 38 38 37 36 36 37 37 37 37 38 38 39 39 41 42 43 45 45 46 48 50 51 52 52 51 51 51 51 51
44 44 44 43 42 41 40 40 39 38 38 37 37 36 36 37 37 37 38 38 38 39 41 43 43 44 45 46 47 48 49 51 51 51 51 51 51 51
46 46 45 44 43 42 42 41 40 39 38 37 37 36 36 36 37 37 37 37 37 38 40 42 43 44 45 45 46 48 48 49 50 51 52 51 51 51
48 47 46 45 44 44 43 42 40 39 38 37 36 35 36 36 36 36 36 36 36 36 38 39 41 43 44 44 44 46 48 48 48 49 50 51 51 51
50 49 48 46 45 44 43 41 40 39 38 36 35 34 35 35 35 35 34 34 34 34 36 38 39 40 42 43 43 44 46 47 48 49 49 49 50 50
51 50 48 47 46 44 42 40 39 38 36 35 35 34 34 34 33 33 33 33 33 34 36 38 39 39 40 41 42 42 44 46 47 48 48 48 48 49
52 50 48 47 45 43 41 39 38 38 37 36 34 34 34 33 33 33 32 32 32 33 35 36 38 39 39 40 41 42 43 44 45 47 47 48 48 48
52 50 48 46 44 41 39 38 38 37 37 35 34 33 33 32 32 31 31 31 31 31 32 34 36 37 38 39 40 42 42 44 44 46 47 47 47 48
52 50 47 44 42 40 39 37 36 36 35 33 32 32 31 31 30 30 30 29 29 30 30 31 33 35 36 38 39 41 42 42 43 44 45 46 46 47
49 47 44 42 40 39 37 36 35 34 33 32 31 30 30 29 28 28 28 28 28 28 29 29 30 32 34 35 37 38 40 41 42 42 43 44 45 45
46 44 41 39 37 36 35 35 34 33 32 30 29 29 28 27 27 27 27 27 26 26 27 28 29 30 32 33 34 36 38 39 39 40 41 42 42 44
43 40 38 35 34 34 33 32 31 30 29 28 27 26 26 26 25 25 25 25 25 24 25 26 27 28 29 31 33 34 36 37 38 39 40 41 41 41
Wind_Direction
315 312 309 307 304 300 295 291 286 282 278 275 271 266 263 261 258 255 253 251 250 250 248 247 245 243 241 240 239 238 236 236 236 236 237 236 237 237
317 315 312 309 305 302 298 294 289 284 279 276 274 270 266 262 259 257 254 252 250 249 248 247 245 243 242 240 238 238 238 237 236 237 237 237 236 237
317 315 314 311 308 305 301 297 292 287 281 277 274 272 269 265 261 257 255 253 251 249 248 247 245 243 241 240 239 237 237 237 237 237 236 236 236 236
315 314 313 312 310 306 303 300 296 291 286 280 276 273 270 267 264 260 256 254 252 250 248 247 245 244 243 241 240 239 238 237 237 237 236 236 236 236
315 314 313 312 310 308 305 302 298 294 290 284 279 275 271 268 265 262 258 255 252 251 249 248 246 244 243 241 240 239 238 238 237 237 236 235 235 236
314 314 313 312 311 308 306 303 300 296 293 289 285 279 274 270 267 264 261 258 255 252 250 248 246 244 242 241 240 239 238 238 238 237 236 236 236 236
313 313 313 312 311 308 306 304 301 297 294 291 288 283 278 273 269 266 263 260 257 253 251 249 246 245 243 241 240 239 239 238 237 236 236 235 235 235
313 312 311 311 309 307 305 303 301 298 295 292 289 285 280 276 272 269 265 262 258 255 252 249 247 245 243 242 240 239 239 238 237 236 234 234 234 234
312 311 310 309 308 307 305 303 301 298 296 292 290 286 281 278 274 271 267 263 259 256 253 250 248 245 243 242 240 239 238 237 236 235 235 234 234 234
310 310 309 308 308 306 305 303 301 298 296 293 289 286 282 278 275 272 268 264 260 257 254 251 248 246 244 242 240 239 237 236 236 235 234 234 233 233
309 309 308 307 307 306 304 302 300 298 296 293 289 286 282 278 275 273 269 265 261 258 255 252 248 246 245 243 241 238 237 236 235 234 234 233 233 233
308 308 307 306 305 304 303 302 299 297 295 293 290 286 282 279 276 274 270 266 261 258 255 252 249 247 244 243 241 239 237 236 235 234 234 233 232 232
307 306 305 304 303 302 302 301 298 296 294 292 290 287 284 281 278 275 271 267 262 258 255 252 249 247 244 242 242 240 238 236 235 234 234 232 232 232
305 305 304 302 301 301 300 299 297 294 292 291 289 286 283 281 279 276 273 268 262 258 256 252 249 246 243 241 240 239 237 235 234 233 233 231 231 231
304 303 302 301 300 299 298 298 296 294 291 289 287 285 282 281 280 277 273 268 263 259 256 252 248 245 243 240 238 237 236 235 233 232 231 231 230 230
302 302 301 299 297 297 296 296 294 293 291 288 286 284 282 281 279 276 272 268 264 259 255 252 248 245 242 239 237 235 235 234 232 231 230 230 230 230
300 300 299 297 296 295 294 294 293 292 289 287 285 284 283 281 278 276 272 269 265 261 256 253 249 245 241 238 235 234 233 233 232 231 230 229 229 229
298 298 297 295 293 292 292 291 291 291 288 286 283 283 282 281 278 276 273 269 266 262 257 253 249 245 240 237 235 233 232 231 231 231 230 229 229 229
296 295 294 292 291 290 289 289 289 289 287 284 283 282 281 280 278 275 273 270 266 262 257 252 249 246 241 237 234 233 232 231 231 230 229 228 228 229
294 293 292 290 288 287 287 286 288 288 286 284 282 281 280 278 277 274 272 270 266 260 256 253 249 245 240 237 233 232 231 231 230 229 229 228 228 228
292 291 290 288 286 285 284 285 286 287 286 283 281 280 279 277 275 274 272 269 266 261 256 253 249 243 238 234 232 232 232 231 230 228 227 227 227 227
290 289 288 286 283 282 282 283 284 285 285 282 279 279 277 276 275 274 272 269 266 261 256 251 247 242 238 234 232 230 229 230 229 228 227 227 227 228
288 287 284 282 281 282 281 282 283 283 283 280 278 277 276 276 275 274 271 267 264 261 255 249 246 242 238 233 230 228 227 227 226 227 227 227 227 228
Height
5822 5819 5816 5814 5811 5809 5807 5805 5804 5802 5801 5799 5799 5800 5800 5802 5803 5804 5806 5808 5810 5812 5815 5817 5821 5824 5828 5832 5835 5839 5844 5848 5852 5857 5861 5865 5869 5873
5816 5813 5809 5807 5804 5801 5799 5797 5795 5794 5792 5790 5789 5789 5789 5791 5792 5793 5795 5796 5799 5801 5804 5807 5810 5813 5817 5821 5825 5830 5834 5839 5843 5847 5852 5856 5861 5865
5809 5806 5802 5799 5796 5793 5790 5787 5785 5784 5783 5781 5779 5778 5778 5779 5780 5781 5783 5785 5787 5789 5792 5795 5798 5802 5806 5810 5814 5819 5824 5828 5833 5838 5842 5847 5852 5856
5802 5799 5795 5791 5787 5784 5781 5778 5775 5773 5772 5771 5769 5767 5767 5767 5768 5769 5771 5773 5775 5777 5780 5783 5787 5790 5794 5799 5803 5808 5813 5817 5822 5827 5832 5838 5842 5847
5795 5791 5787 5783 5779 5775 5772 5768 5765 5763 5761 5760 5758 5757 5756 5755 5756 5757 5758 5760 5763 5765 5768 5771 5775 5778 5782 5787 5791 5796 5801 5807 5812 5816 5821 5827 5832 5837
5787 5783 5778 5774 5770 5766 5762 5759 5756 5753 5751 5749 5748 5746 5745 5744 5744 5745 5746 5748 5750 5753 5755 5758 5762 5766 5770 5775 5780 5784 5789 5794 5799 5805 5810 5816 5821 5826
5779 5774 5770 5765 5761 5757 5753 5750 5746 5743 5741 5739 5737 5735 5734 5732 5732 5733 5734 5735 5738 5740 5742 5746 5749 5753 5757 5762 5766 5771 5777 5782 5787 5793 5799 5804 5810 5815
5770 5765 5761 5756 5752 5748 5744 5740 5736 5733 5730 5728 5726 5725 5723 5721 5721 5721 5722 5724 5726 5727 5729 5733 5736 5740 5744 5749 5753 5759 5764 5769 5775 5781 5786 5792 5798 5804
5761 5756 5752 5747 5743 5738 5734 5730 5726 5723 5720 5718 5716 5713 5712 5710 5709 5710 5710 5711 5713 5714 5716 5720 5723 5727 5731 5735 5740 5746 5751 5757 5762 5768 5774 5780 5786 5792
5751 5747 5742 5737 5733 5728 5724 5720 5716 5712 5709 5707 5705 5703 5700 5699 5698 5698 5698 5699 5701 5702 5704 5707 5710 5713 5718 5722 5727 5733 5738 5744 5749 5755 5762 5768 5774 5780
5741 5736 5732 5727 5722 5718 5714 5710 5706 5702 5698 5695 5693 5691 5689 5687 5686 5686 5686 5687 5689 5690 5691 5694 5698 5700 5705 5709 5714 5719 5725 5731 5737 5742 5749 5755 5762 5768
5731 5726 5721 5716 5712 5707 5703 5699 5695 5691 5687 5685 5682 5680 5678 5676 5675 5674 5674 5675 5676 5678 5679 5681 5684 5687 5692 5697 5701 5706 5712 5718 5724 5730 5736 5743 5749 5755
5719 5714 5709 5705 5700 5696 5691 5688 5684 5680 5677 5674 5671 5668 5666 5664 5663 5662 5662 5662 5663 5665 5666 5668 5671 5674 5679 5684 5687 5692 5698 5704 5711 5718 5724 5730 5737 5744
5708 5703 5697 5693 5688 5684 5680 5676 5672 5669 5666 5663 5660 5657 5655 5653 5651 5650 5650 5650 5650 5652 5652 5655 5658 5661 5665 5670 5675 5679 5685 5691 5698 5705 5711 5718 5725 5731
5695 5690 5685 5680 5676 5672 5667 5663 5660 5657 5654 5651 5648 5646 5643 5641 5639 5638 5637 5637 5638 5639 5640 5642 5645 5648 5652 5657 5662 5667 5672 5679 5685 5692 5699 5706 5713 5720
5681 5676 5672 5667 5663 5659 5655 5651 5647 5644 5642 5639 5637 5634 5632 5630 5628 5626 5625 5625 5626 5627 5628 5630 5632 5636 5640 5645 5650 5655 5661 5667 5674 5680 5687 5694 5701 5708
5667 5663 5658 5654 5650 5646 5642 5639 5635 5632 5630 5627 5625 5623 5621 5619 5617 5615 5615 5614 5615 5616 5616 5618 5620 5624 5628 5633 5639 5644 5649 5655 5661 5668 5675 5682 5689 5696
5652 5648 5644 5640 5636 5633 5629 5626 5623 5620 5618 5615 5614 5612 5610 5608 5606 5605 5604 5604 5604 5604 5605 5606 5609 5612 5617 5622 5628 5633 5638 5644 5650 5656 5663 5671 5678 5684
5637 5633 5630 5626 5622 5619 5617 5614 5611 5608 5606 5604 5602 5600 5599 5597 5596 5594 5593 5593 5593 5593 5594 5595 5598 5601 5606 5611 5616 5620 5626 5632 5638 5645 5652 5659 5667 5673
5621 5618 5615 5612 5609 5606 5604 5602 5599 5597 5594 5592 5591 5589 5588 5587 5585 5584 5583 5582 5582 5583 5584 5585 5588 5591 5594 5599 5604 5609 5615 5622 5628 5635 5641 5648 5655 5662
5606 5603 5600 5598 5595 5594 5592 5590 5588 5586 5583 5581 5580 5579 5577 5576 5575 5574 5573 5573 5573 5573 5574 5576 5578 5580 5584 5589 5595 5601 5606 5612 5618 5624 5631 5638 5645 5652
5591 5589 5586 5584 5583 5581 5579 5578 5576 5575 5573 5571 5570 5569 5568 5567 5566 5565 5564 5564 5564 5564 5565 5566 5568 5571 5576 5581 5586 5591 5596 5602 5608 5615 5621 5628 5634 5642
5577 5575 5573 5572 5570 5569 5568 5567 5565 5564 5563 5561 5561 5560 5559 5558 5557 5556 5556 5555 5555 5556 5556 5558 5560 5564 5568 5572 5577 5582 5588 5593 5599 5606 5612 5618 5625 5631